Weather Service Report


349 
ASUS42 KCAE 191610
RWRCAE
REGIONAL WEATHER ROUNDUP
NATIONAL WEATHER SERVICE COLUMBIA SC
1200 PM EDT SAT APR 19 2014

NOTE: "FAIR" INDICATES FEW OR NO CLOUDS BELOW 12,000 FEET WITH NO
SIGNIFICANT WEATHER AND/OR OBSTRUCTIONS TO VISIBILITY.

NOT ALL STATIONS ARE QUALITY CONTROLLED BY THE NATIONAL 
WEATHER SERVICE. USE DATA WITH CAUTION...ESPECIALLY 
DEWPOINT OBSERVATIONS.

SCZ001>056-GAZ040-063>065-077-191700-
...UPSTATE SOUTH CAROLINA...
  
CITY           SKY/WX    TMP DP  RH WIND       PRES   REMARKS
ANDERSON       CLOUDY    56  51  84 NE15G30   30.12R                  
LIBERTY        LGT RAIN  56  26  32 MISG      30.13R                  
SPARTANBURG    DRIZZLE   52  52 100 NE18      30.15S                  
CLEMSON        CLOUDY    59  49  69 NE14G24   30.15R                  
GREENVILLE     LGT RAIN  52  47  83 NE21G29   30.15R                  
GREENWOOD      LGT RAIN  53  51  93 N14G22    30.12S FOG              
GREER          LGT RAIN  51  49  92 N17G24    30.13S FOG              
ROCK HILL      LGT RAIN  51  49  92 NE9       30.14S FOG              
CHESTER        DRIZZLE   54  54 100 NE16G22   30.14S                  
LAURENS        DRIZZLE   52 N/A N/A N10G16    30.13S                  


...CENTRAL SOUTH CAROLINA...
  
CITY           SKY/WX    TMP DP  RH WIND       PRES   REMARKS
COLUMBIA APT   CLOUDY    57  53  86 NE12G21   30.06F                  
COLUMBIA OWENS CLOUDY    57  51  80 NE9G17    30.08R                  
DARLINGTON     CLOUDY    55  52  88 NE13      30.10F                  
FLORENCE       CLOUDY    54  50  86 NE22      30.07S                  
MCENTIRE ANGB  DRIZZLE   56  55  99 NE12G17   30.05F FOG              
ORANGEBURG     CLOUDY    57  52  83 NE14G24   30.03S                  
SUMTER SHAW    DRIZZLE   56  54  95 NE17G25   30.04F                  
NEWBERRY       RAIN      54  54 100 NE15G24   30.13R                  
AIKEN          CLOUDY    55  55 100 NE14G25   30.08S                  
BARNWELL       CLOUDY    57  54  88 NE13G22   30.03S                  
MANNING        CLOUDY    55 N/A N/A NE13G20   30.03S                  
CAMDEN         LGT RAIN  55  55 100 NE12G18   30.09S                  
LANCASTER      LGT RAIN  52  52 100 NE12G22   30.12S                  
WINNSBORO      CLOUDY    54  54 100 NE13G20   30.08S FOG              


...EASTERN AND COASTAL SOUTH CAROLINA...
  
CITY           SKY/WX    TMP DP  RH WIND       PRES   REMARKS
MYRTLE BEACH   CLOUDY    57  55  94 N20       30.00F                  
N MYRTLE BCH   CLOUDY    57  54  89 N16G23    30.02S                  
CONWAY         CLOUDY    55  55 100 NE16G25   30.04S                  
MARION         CLOUDY    52  50  93 N14G23    30.07S                  
HARTSVILLE     CLOUDY    55  55 100 NE14G20   30.08F                  
FLORENCE       CLOUDY    54  50  86 NE22      30.07S                  
DARLINGTON     CLOUDY    55  52  88 NE13      30.10F                  
CHARLESTON APT CLOUDY    62  58  86 NE12      29.98S                  
MOUNT PLEASANT CLOUDY   N/A N/A N/A N5        29.97S HAZE             
WALTERBORO     CLOUDY    57 N/A N/A N7        30.00F                  
BEAUFORT       CLOUDY    61  58  90 NE12      29.98S FOG              


...EASTERN GEORGIA...
  
CITY           SKY/WX    TMP DP  RH WIND       PRES   REMARKS
AUGUSTA BUSH F LGT RAIN  56  53  90 NE8       30.05R FOG              
AUGUSTA DANIEL LGT RAIN  57  53  86 NE13      30.06R                  
THOMSON        CLOUDY    54  54 100 NE10G20   30.11S                  
WASHINGTON     DRIZZLE   54 N/A N/A NE12G20   30.08S                  
CLAXTON        HVY RAIN N/A N/A N/A NE6       29.99R                  
SYLVANIA       CLOUDY    59  56  88 NE12G17   30.00S                  
STATESBORO     CLOUDY    56  56 100 NE8       29.99S                  
SAVANNAH       CLOUDY    60  57  89 N10       29.97R                  


...SOUTHERN NORTH CAROLINA...
  
CITY           SKY/WX    TMP DP  RH WIND       PRES   REMARKS
CHARLOTTE      LGT RAIN  50  49  96 N14       30.16S FOG              
MONROE         LGT RAIN  51  48  89 NE15G26   30.13R FOG              
WADESBORO      RAIN      52  51  97 N10G16    30.13S                  
ROCKINGHAM     RAIN      53  52  97 NE8G20    30.11S                  
RUTHERFORDTON  CLOUDY    52  47  85 N8        30.19F                  
ASHEVILLE      CLOUDY    53  49  86 N8        30.19R                  

$$

Return to Home page


Western Regional Climate Center, wrcc@dri.edu